Powrót do katalogu

SL-14 R/B

AktywnyLEO
NORAD 20721·ROCKET BODY·🇷🇺 Russia

Wystrzelony Jul 30, 1990 z Plesetsk Cosmodrome

Loading…

Następne Przeloty (najbliższe 24 godziny)

TLE

ŚwieżeSource: Space-Track

Epoka: Sep 14, 2026, 06:14 UTC

1 20721U 90066B   26257.26027369 -.00000032  00000-0 -10817-3 0  9997
2 20721  73.5959 259.6483 0023140 123.8417 249.0009 12.41083905636850

Śledź SL-14 R/B w czasie rzeczywistym z AllMySat

Download on the App Store